Woolwich, ME

5:36 PM EST on February 26, 2017 (GMT -0500)
Wiscasset

Weather History for KIWI - May, 2013

Change the Weather History Date:

Sunday, May 26, 2013

  Actual Average Record
Temperature  
Mean Temperature 50 °F -  
Max Temperature 55 °F 63 °F 86 °F (2007)
Min Temperature 42 °F 42 °F 35 °F (2001)
Degree Days  
Heating Degree Days 14    
Moisture  
Dew Point 44 °F    
Average Humidity 86    
Maximum Humidity 100    
Minimum Humidity 59    
Precipitation  
Precipitation 0.39 in - - ()
Sea Level Pressure  
Sea Level Pressure 29.72 in    
Wind  
Wind Speed 5 mph (NNW)    
Max Wind Speed 12 mph    
Max Gust Speed 22 mph    
Visibility 6 miles    
Events Rain    
Averages and records for this station are not official NWS values.
T = Trace of Precipitation, MM = Missing Value Source: NWS Daily Summary

Daily Weather History Graph

Daily Weather History Graph

Search for Another Location

Airport or City:

Trip Planner

Search our weather history database for the weather conditions in past years. The results will help you decide how hot, cold, wet, or windy it might be!

Date:

Astronomy

May. 26, 2013 Rise Set
Actual Time 5:02 AM EDT 8:09 PM EDT
Civil Twilight 4:28 AM EDT 8:44 PM EDT
Nautical Twilight 3:43 AM EDT 9:29 PM EDT
Astronomical Twilight 2:49 AM EDT 10:23 PM EDT
Moon 9:53 PM EDT 6:28 AM EDT
Length of Visible Light 16h 16m
Length of Day
15h 06m
Waning Gibbous, 97% of the Moon is Illuminated
May 26
Waning Gibbous
May 31
Last Quarter
Jun 8
New
Jun 16
First Quarter
Jun 23
Full

Hourly Weather History & Observations

Time (EDT) Temp. Windchill Dew Point Humidity Pressure Visibility Wind Dir Wind Speed Gust Speed Precip Events Conditions
12:53 AM 48.9 °F - 48.0 °F 97% 29.65 in 8.0 mi ENE 4.6 mph - 0.08 in Rain Light Rain
1:29 AM 48.2 °F - 48.2 °F 100% 29.64 in 2.5 mi ENE 4.6 mph - 0.01 in   Overcast
1:41 AM 48.2 °F - 48.2 °F 100% 29.64 in 3.0 mi NE 5.8 mph - 0.01 in   Overcast
1:53 AM 48.9 °F - 48.0 °F 97% 29.63 in 3.0 mi Variable 4.6 mph - 0.01 in   Overcast
2:00 AM 48.2 °F - 48.2 °F 100% 29.63 in 2.0 mi NE 5.8 mph - 0.01 in Rain Light Rain
2:22 AM 48.2 °F - 48.2 °F 100% 29.63 in 1.5 mi Variable 3.5 mph - 0.03 in Rain Light Rain
2:53 AM 48.9 °F - 46.9 °F 93% 29.62 in 2.0 mi Variable 5.8 mph - 0.07 in Rain Light Rain
3:53 AM 48.0 °F - 46.0 °F 93% 29.61 in 3.0 mi Variable 4.6 mph - 0.11 in Rain Rain
4:36 AM 46.4 °F 45.2 °F 44.6 °F 93% 29.61 in 7.0 mi Variable 3.5 mph - 0.01 in   Overcast
4:53 AM 46.0 °F 44.8 °F 44.1 °F 93% 29.62 in 5.0 mi Variable 3.5 mph - 0.02 in   Overcast
5:18 AM 46.4 °F 44.3 °F 44.6 °F 93% 29.62 in 3.0 mi Variable 4.6 mph - 0.01 in Rain Light Rain
5:25 AM 46.4 °F 44.3 °F 44.6 °F 93% 29.62 in 2.5 mi Variable 4.6 mph - 0.02 in Rain Light Rain
5:35 AM 46.4 °F 44.3 °F 44.6 °F 93% 29.63 in 3.0 mi Variable 4.6 mph - 0.02 in Rain Light Rain
5:53 AM 46.0 °F - 44.1 °F 93% 29.64 in 4.0 mi Calm Calm - 0.02 in   Overcast
6:53 AM 46.0 °F 43.1 °F 44.1 °F 93% 29.65 in 3.0 mi Variable 5.8 mph - 0.02 in Rain Light Rain
7:01 AM 46.4 °F 43.5 °F 44.6 °F 93% 29.65 in 2.5 mi Variable 5.8 mph - 0.00 in Rain Light Rain
7:36 AM 46.4 °F 43.5 °F 44.6 °F 93% 29.66 in 3.0 mi Variable 5.8 mph - 0.00 in Rain Light Rain
7:48 AM 46.4 °F 45.2 °F 44.6 °F 93% 29.66 in 2.5 mi Variable 3.5 mph - 0.01 in Rain Light Rain
7:53 AM 46.0 °F 44.8 °F 44.1 °F 93% 29.67 in 3.0 mi Variable 3.5 mph - 0.01 in Rain Light Rain
8:27 AM 46.4 °F 43.5 °F 44.6 °F 93% 29.68 in 3.0 mi Variable 5.8 mph - 0.03 in Rain Light Rain
8:37 AM 46.4 °F 44.3 °F 44.6 °F 93% 29.68 in 2.5 mi Variable 4.6 mph - 0.03 in Rain Light Rain
8:46 AM 46.4 °F 45.2 °F 44.6 °F 93% 29.69 in 3.0 mi Variable 3.5 mph - 0.03 in Rain Light Rain
8:53 AM 46.9 °F - 45.0 °F 93% 29.69 in 2.5 mi Variable 4.6 mph - 0.04 in Rain Light Rain
8:59 AM 46.4 °F 44.3 °F 44.6 °F 93% 29.69 in 4.0 mi Variable 4.6 mph - 0.00 in Rain Light Rain
9:11 AM 46.4 °F 43.5 °F 44.6 °F 93% 29.69 in 4.0 mi Variable 5.8 mph - 0.00 in   Overcast
9:40 AM 48.2 °F - 46.4 °F 93% 29.70 in 2.5 mi NNW 6.9 mph - 0.00 in   Overcast
9:44 AM 48.2 °F - 46.4 °F 93% 29.70 in 1.8 mi Variable 3.5 mph - 0.00 in Rain Light Rain
9:49 AM 48.2 °F - 46.4 °F 93% 29.70 in 2.0 mi Variable 3.5 mph - 0.00 in Rain Light Rain
9:53 AM 48.9 °F - 46.9 °F 93% 29.70 in 3.0 mi Variable 4.6 mph - 0.00 in   Overcast
10:53 AM 48.9 °F - 46.0 °F 90% 29.72 in 10.0 mi Variable 6.9 mph - N/A   Overcast
11:53 AM 50.0 °F - 45.0 °F 83% 29.74 in 10.0 mi Variable 6.9 mph - 0.01 in   Overcast
12:00 PM 50.0 °F - 44.6 °F 82% 29.74 in 10.0 mi Variable 6.9 mph 16.1 mph N/A   Overcast
12:53 PM 51.1 °F - 46.0 °F 83% 29.75 in 10.0 mi NW 8.1 mph - 0.00 in   Overcast
1:49 PM 53.6 °F - 44.6 °F 72% 29.76 in 10.0 mi Variable 5.8 mph - N/A   Mostly Cloudy
1:53 PM 54.0 °F - 43.0 °F 66% 29.77 in 10.0 mi NW 8.1 mph - N/A   Mostly Cloudy
2:53 PM 53.1 °F - 42.1 °F 66% 29.79 in 10.0 mi WNW 11.5 mph 21.9 mph N/A   Overcast
3:53 PM 54.0 °F - 42.1 °F 64% 29.81 in 10.0 mi NW 8.1 mph - N/A   Overcast
4:53 PM 54.0 °F - 41.0 °F 62% 29.83 in 10.0 mi Variable 4.6 mph - N/A   Overcast
5:53 PM 55.0 °F - 41.0 °F 59% 29.85 in 10.0 mi Variable 5.8 mph - N/A   Overcast
6:53 PM 53.1 °F - 39.0 °F 59% 29.88 in 10.0 mi WNW 10.4 mph 19.6 mph N/A   Mostly Cloudy
7:53 PM 52.0 °F - 39.9 °F 63% 29.91 in 10.0 mi WNW 5.8 mph - N/A   Overcast
8:53 PM 50.0 °F - 39.0 °F 66% 29.94 in 10.0 mi Variable 3.5 mph - N/A   Mostly Cloudy
9:53 PM 48.0 °F - 39.0 °F 71% 29.97 in 10.0 mi Calm Calm - N/A   Clear
10:53 PM 46.0 °F - 39.0 °F 76% 29.98 in 10.0 mi Calm Calm - N/A   Clear
11:53 PM 42.1 °F - 39.0 °F 89% 29.97 in 10.0 mi Calm Calm - N/A   Clear